Flag for U.S.A. Weather past 2 weeks in Pasadena, Texas, U.S.A.

Now
72 °F

Passing clouds.


Feels Like: 67 °F
Forecast: 76 / 90 °F
Wind: No wind

Location: Houston / Ellington

Current Time: Jul 2, 2015 at 4:59:02 AM

Latest Report: Jul 2, 2015 at 3:50 AM


Visibility: 8 mi

Pressure: 30.02 "Hg

Humidity: 94%

Dew point: 70 °F

Location of PasadenaLocation

Historic Weather in Pasadena — Graph

°F

Pasadena temperature yesterday

Maximum temperature yesterday: 86 °F (at 10:50 AM)
Minimum temperature yesterday: 72 °F (at 12:50 AM)
Average temperature yesterday: 77 °F

Past Weeks' High & Low Weather Summary

 TemperatureHumidityPressure
High93 °F (Jun 27, 3:50 PM)100% (Jun 17, 11:50 AM)30.18 "Hg (Jun 17, 11:50 AM)
Low72 °F (Jun 30, 4:50 PM)33% (Jun 22, 4:50 PM)29.89 "Hg (Jun 17, 3:50 AM)
Average82 °F79%30.05 "Hg
* Reported Jun 17 3:50 AM — Jul 2 3:50 AM, Pasadena, Weather by CustomWeather, © 2015

Note: Actual official high and low records may vary slightly from our data, if they occured in-between our weather recording intervals... More about our weather records

Advertising

Pasadena weather history for previous 24 hours

 ConditionsComfort  
Time TempWeatherWind HumidityBarometerVisibility
3:50 AM
Thu, Jul 2
72 °FPassing clouds.No wind94%30.02 "Hg8 mi
2:50 AM72 °FPassing clouds.No wind94%30.02 "Hg8 mi
1:50 AM73 °FPassing clouds.3 mph89%30.04 "Hg8 mi
12:50 AM73 °FPassing clouds.3 mph89%30.07 "Hg8 mi
11:50 PM
Wed, Jul 1
73 °FPassing clouds.3 mph89%30.08 "Hg8 mi
10:50 PM73 °FPartly cloudy.No wind94%30.08 "Hg7 mi
9:50 PM75 °FPassing clouds.No wind94%30.06 "Hg7 mi
8:50 PM75 °FMostly cloudy.No wind94%30.04 "Hg7 mi
7:50 PM75 °FMostly cloudy.No wind94%30.03 "Hg7 mi
6:50 PM75 °FMostly cloudy.No wind89%30.07 "Hg7 mi
5:50 PM75 °FLight rain. Mostly cloudy.6 mph89%30.07 "Hg7 mi
4:50 PM75 °FLight rain. Mostly cloudy.7 mph89%30.08 "Hg7 mi
3:50 PM79 °FScattered showers. Broken clouds.3 mph84%30.03 "Hg7 mi
2:50 PM77 °FBroken clouds.No wind94%30.03 "Hg7 mi
1:50 PM77 °FLight rain. Broken clouds.3 mph94%30.08 "Hg7 mi
12:50 PM79 °FMostly cloudy.2 mph89%30.11 "Hg7 mi
11:50 AM86 °FScattered showers. Broken clouds.6 mph84%30.08 "Hg10 mi
10:50 AM86 °FRain showers. Broken clouds.13 mph75%30.08 "Hg10 mi
9:50 AM84 °FBroken clouds.9 mph79%30.08 "Hg10 mi
8:50 AM82 °FBroken clouds.3 mph89%30.08 "Hg10 mi
7:50 AM79 °FBroken clouds.No wind94%30.06 "Hg10 mi
6:50 AM75 °FPartly cloudy.No wind94%30.04 "Hg10 mi
5:50 AM73 °FPartly cloudy.No wind94%30.04 "Hg10 mi
4:50 AM73 °FPartly cloudy.2 mph94%30.04 "Hg10 mi
Weather by CustomWeather, © 2015

See weather overviewHow to use our weather pages